Regional Weather Roundup
Issued by NWS New Orleans/Baton Rouge, LA

Home | Current Version | Previous Version | Text Only | Print | Product List | Glossary Off
Versions: 1 2 3 4 5 6 7 8 9 10 11 12 13 14 15 16 17 18 19 20 21 22 23 24 25 26 27 28 29 30 31 32 33 34 35 36 37 38 39 40 41 42 43 44 45 46 47 48 49 50

120
ASUS44 KLIX 261107
RWRLIX
NEW ORLEANS REGIONAL WEATHER ROUNDUP
NATIONAL WEATHER SERVICE NEW ORLEANS LA
600 AM CDT THU MAR 26 2015

NOTE: "FAIR" INDICATES FEW OR NO CLOUDS BELOW 12,000 FEET WITH NO
      SIGNIFICANT WEATHER AND/OR OBSTRUCTIONS TO VISIBILITY.
      SKY/WX - SKY CONDITION AND SIGNIFICANT WEATHER.
      TMP - AIR TEMPERATURE.     DP    - DEWPOINT TEMPERATURE.
      RH  - RELATIVE HUMIDITY.   PRES  - PRESSURE.
      HI  - HEAT INDEX.          WCI   - WIND CHILL INDEX.

*  THESE STATIONS ARE NOT NWS OR FAA STATIONS AND ARE NOT UNDER
   NWS QUALITY CONTROL.

LAZ038-040-048-061>063-065>067-069-261200-
SOUTHEAST LOUISIANA

CITY           SKY/WX    TMP DP  RH WIND       PRES   REMARKS
N.O. AUDUBON   NOT AVBL
N.O. INTL ARPT CLOUDY    68  63  84 CALM      29.91R
N.O. LAKEFRONT CLOUDY    70  65  84 SE5       29.91R
SLIDELL        CLOUDY    62  61  96 CALM      29.91S
BATON ROUGE    CLOUDY    62  60  93 CALM      29.91R
BOOTHVILLE     CLOUDY    64  63  96 E3        29.90S FOG
BELLE CHASSE   CLOUDY    68  64  87 CALM      29.90R
BOGALUSA*        N/A     60  57  89 CALM      29.94R
GALLIANO*      CLOUDY    71  69  93 CALM      29.90S
NEW ROADS*     PTSUNNY   60  58  94 CALM      29.91R
GONZALES*      PTSUNNY   64  64 100 CALM      29.90R
HAMMOND*       CLOUDY    63  59  88 CALM      29.93R
HOUMA*         MOCLDY    70  68  94 CALM      29.89S
PORT FOURCHON* CLOUDY    73  70  88 S5        29.93R

$$

MSZ070-080>082-261200-
SOUTHERN MISSISSIPPI

CITY           SKY/WX    TMP DP  RH WIND       PRES   REMARKS
MCCOMB         MOCLDY    61  60  97 CALM      29.92R
GULFPORT       MOCLDY    66  64  93 CALM      29.92S
BILOXI         MOCLDY    66  65  99 NE3       29.93R
PASCAGOULA     MOCLDY    60  59  96 N3        29.94R

$$

COASTAL OBSERVATIONS
LAKE AND NEARSHORE STATIONS

STATION/POSITION TIME  TEMP    WIND        PRES    WAVE
                       AIR SEA DIR/SP/G            HT/PER
                 (UTC) (F)     (DEG/KT/KT) (MB)    (FT/S)
PASCAGOULA       1000   69                 1012.8
WAVELAND YACHT   1000   69 71              1012.9
GRAND ISLE       1000   71 71              1011.9
SOUTHWEST PASS   1000   65 51              1012.5
NEW CANAL        1000   67                 1012.7
SHELL BEACH      1000   69 72              1012.4

OFFSHORE STATIONS

STATION/POSITION TIME  TEMP    WIND        PRES    WAVE
                       AIR SEA DIR/SP/G            HT/PER
                 (UTC) (F)     (DEG/KT/KT) (MB)    (FT/S)
64 S DAUPHIN ISL 1050   73 72  150/  8/ 10 1012.9    3/ 5

$$




USA.gov is the U.S. government's official web portal to all federal, state and local government web resources and services.